BEIDOU-2 G5

Last updated on Mon Jun 22 2026 00:03:04 GMT+0000 (Coordinated Universal Time)

1 38091U 12008A 26172.03983375 .00000053 00000+0 00000+0 0 9994 2 38091 3.5845 69.6825 0009015 273.5349 359.0277 1.00273091 52409
UTC large
Height (km)
Speed (km/s)
/
Latitude / Longitude
Inclination (degrees)
Orbital Period (minutes)
Azimuth
Elevation
Range (km)
Doppler Factor

Next 0 passes for location: London (51.5072 / 0.1276)

No passes found over London.
BEIDOU-2 G5